Terminal Aerodrome Forecast
Issued by NWS San Angelo, TX

Home | Current Version | Previous Version | Text Only | Print | Product List | Glossary On
Versions: 1 2 3 4 5 6 7 8 9 10 11 12 13 14 15 16 17 18 19 20 21 22
841
FTUS44 KSJT 170520
TAFSJT
TAF
KSJT 170520Z 1706/1806 VRB05KT P6SM -TSRA BKN060CB
     FM170700 17008KT P6SM BKN200
     FM171600 17009KT P6SM SCT060=

USA.gov is the U.S. government's official web portal to all federal, state and local government web resources and services.